Tracking 21094 objects as of 12-Aug-2020
HD Live streaming from Space Station
objects crossing your sky now
Track the most recent launched group of Starlink satellites

SL-8 R/B

Track SL-8 R/B now!
10-day predictions


NORAD ID: 23093
Int'l Code: 1994-024B
Perigee: 971.0 km
Apogee: 986.5 km
Inclination: 82.9 °
Period: 104.5 minutes
Semi major axis: 7349 km
RCS: 8.1603 m2 (large)
Launch date: April 26, 1994
Source: Commonwealth of Independent States (former USSR) (CIS)
Launch site: PLESETSK MISSILE AND SPACE COMPLEX (PKMTR)

Note: This is a ROCKET BODY
aabbcc
Your satellite tracking list
Your tracking list is empty




NASA's NSSDC Master Catalog

Two Line Element Set (TLE):
1 23093U 94024B   20224.85805813 +.00000009 +00000-0 -62318-5 0  9999
2 23093 082.9488 337.8177 0010520 023.5080 336.6557 13.77820363789773
Source of the keplerian elements: AFSPC